GMT,Max TemperatureF,Mean TemperatureF,Min TemperatureF,Max Dew PointF,MeanDew PointF,Min DewpointF,Max Humidity, Mean Humidity, Min Humidity, Max Sea Level PressureIn, Mean Sea Level PressureIn, Min Sea Level PressureIn, Max VisibilityMiles, Mean VisibilityMiles, Min VisibilityMiles, Max Wind SpeedMPH, Mean Wind SpeedMPH, Max Gust SpeedMPH,PrecipitationIn, CloudCover, Events, WindDirDegrees
2013-2-1,48,45,42,47,41,37,100,83,66,29.83,29.67,29.62,16,6,2,32,14,44,0.04,7,Rain,316
2013-2-2,46,42,37,37,33,31,81,69,51,30.35,30.17,29.83,12,8,6,28,18,40,0.00,3,,350
2013-2-3,50,44,37,48,45,34,100,91,74,30.33,30.19,30.12,12,4,0,21,12,30,0.20,7,Fog-Rain,273
2013-2-4,49,46,42,49,43,39,94,81,63,30.19,30.09,29.95,7,5,2,36,21,78,0.01,5,Rain,290
2013-2-5,46,40,35,41,37,32,93,78,60,29.92,29.77,29.68,12,6,2,31,26,48,0.00,4,Rain-Snow-Hail,306
2013-2-6,45,42,39,37,35,32,93,73,58,30.27,30.01,29.74,12,6,2,36,26,52,0.01,5,Hail,357
2013-2-7,46,42,37,43,37,32,100,79,61,30.28,30.16,30.01,16,6,2,29,12,48,0.12,5,Rain,325
2013-2-8,47,43,39,43,39,36,93,81,66,30.30,30.23,30.12,12,7,6,25,16,36,0.00,6,Rain,360
2013-2-9,48,46,44,46,44,41,100,90,80,30.25,30.08,29.80,11,6,1,15,11,,0.01,6,Rain,289
2013-2-10,47,42,38,48,42,35,100,90,74,29.77,29.41,29.30,12,6,1,20,12,33,0.12,6,Rain,286
2013-2-11,47,38,30,43,38,30,100,90,71,29.81,29.51,29.30,12,6,2,12,6,,0.01,5,Rain,342
2013-2-12,45,41,37,41,39,36,100,89,72,30.07,29.96,29.80,7,4,2,8,5,,0.00,7,Rain,100
2013-2-13,50,46,42,50,47,41,100,98,93,30.06,30.01,29.89,4,2,0,20,10,31,0.20,8,Fog-Rain,209
2013-2-14,50,46,42,50,45,41,100,89,73,30.13,29.99,29.86,12,7,1,25,16,41,0.00,3,Rain,293
2013-2-15,50,46,41,45,41,37,100,87,63,30.21,30.17,30.12,16,8,6,9,6,,0.00,4,,267
2013-2-16,51,46,42,45,43,39,93,84,65,30.19,30.13,30.06,16,8,6,15,8,,0.00,4,,160
2013-2-17,48,45,42,43,40,37,93,80,60,30.06,29.96,29.89,16,8,6,31,16,44,0.00,1,,138
2013-2-18,48,44,41,45,42,39,100,89,81,30.04,29.95,29.86,12,7,6,26,17,37,0.00,3,,121
2013-2-19,48,42,37,45,40,36,100,90,79,30.04,30.01,29.98,7,6,6,20,12,,0.01,1,,113
2013-2-20,48,42,35,43,38,35,100,84,63,30.05,30.03,30.01,6,5,2,29,16,46,0.01,3,,116
2013-2-21,42,40,37,36,29,26,76,63,48,30.06,30.03,30.01,11,7,5,32,26,52,0.00,6,,115
2013-2-22,37,34,32,32,29,25,100,77,56,30.15,30.05,29.98,11,6,3,25,20,43,0.00,7,Rain-Snow,76
2013-2-23,37,34,30,33,29,23,100,83,44,30.27,30.18,30.12,10,7,6,14,10,,0.00,7,Snow,51
2013-2-24,41,34,28,32,26,21,100,71,35,30.38,30.31,30.24,12,7,6,14,8,,0.00,6,,46
2013-2-25,43,38,32,34,29,25,81,67,48,30.45,30.40,30.36,16,7,6,16,10,24,0.00,7,Snow,40
2013-2-26,41,39,37,36,34,32,87,78,65,30.55,30.45,30.36,7,5,3,17,11,31,0.00,8,Rain,63
2013-2-27,44,40,35,36,34,30,87,79,61,30.56,30.50,30.45,5,4,2,14,10,,0.00,7,Rain,50
2013-2-28,42,37,32,31,28,23,93,67,40,30.42,30.36,30.30,12,6,3,15,9,,0.00,6,Rain,55